Siga o Apolo11 no Facebook   Siga o Apolo11 no Twiiter
Ciência, Espaço e Tecnologia




Elementos Keplerianos formato Two Line

Para que um programa de rastreio possa saber a localização exata de qualquer satélite no espaço e assim poder rastreá-lo corretamente, é necessário que ele seja carregado com algumas informações.

Estas informações são chamadas de Elementos Orbitais ou Elementos Keplerianos e consistem em 2 linhas com dezenas de números. Esses números nada mais são que os parâmetros orbitais do satélite, tais como altitude, atitude, excentricidade da órbita, número de órbitas por dia, etc.

Com base nestas informações o programa é capaz de determinar com bastante exatidão a posição de qualquer satélite no espaço e nos informar em qual horário este estará dentro do alcance de nossa estação. Para que isso seja feito com precisão é necessário que os dados estejam sempre bem atualizadas.

Devido aos parâmetros orbitais serem descritos em 2 linhas, estes formato é também conhecido internacionalmente por 2line (leia-se Two Line”).

Para atualizar seu programa de rastreio basta copiar os dados disponibilizados e fornece-los ao programa. Nossos elementos orbitais são atualizados diariamente.

NOAATodos os satélites ambientais da série NOAA
30 DiasSatélites lançados nos últimos 30 dias
ISSSatélites e foguetes relacionados à Estação Espacial Internacional
HAMSatélites construídos por radiomadores
CUBESatélites tipo cubo, com 10 centímetros de lado
METEOSatélites voltados à previsão do tempo
EDUSatélites construídos e operados por universidades
VIS100 satélites mais brilhantes que podem ser vistos a olho nú



Satélites Visíveis
ATLAS CENTAUR 2         
1 00694U 63047A   24285.42942842  .00016508  00000+0  20617-2 0  9992
2 00694  30.3574 183.2522 0561055 238.1456 116.3349 14.08751188 58954
THOR AGENA D R/B        
1 00733U 64002A   24285.56237084  .00001924  00000+0  70996-3 0  9990
2 00733  99.0902 260.6841 0032471 316.9987  42.8658 14.33455944164625
SL-3 R/B                
1 00877U 64053B   24285.57531846  .00002879  00000+0  60142-3 0  9991
2 00877  65.0799  37.6553 0055612 154.1908 206.1986 14.60636522191688
SL-8 R/B                
1 02802U 67045B   24285.58216497  .00003272  00000+0  92220-3 0  9998
2 02802  74.0119 227.7871 0065113 357.8124   2.2738 14.44943681 14748
SL-8 R/B                
1 03230U 68040B   24285.40718908  .00050079  00000+0  41906-2 0  9996
2 03230  74.0324 280.6715 0027993 242.7144 117.1191 14.97901668 12851
OAO 2                   
1 03597U 68110A   24285.19770137  .00004789  00000+0  13089-2 0  9996
2 03597  34.9932 256.7714 0005122  27.5417 332.5545 14.46791051945018
ISIS 1                  
1 03669U 69009A   24285.33313231  .00004331  00000+0  30914-2 0  9997
2 03669  88.4482 211.4175 1709832  47.4277 325.8899 11.30024985290426
SERT 2                  
1 04327U 70009A   24285.56537078  .00000212  00000+0  34598-3 0  9990
2 04327  99.2027 247.6093 0005660  46.2082  69.9769 13.58648858710074
SL-3 R/B                
1 05118U 71028B   24285.55738980  .00044736  00000+0  13680-2 0  9992
2 05118  81.2473 312.1602 0030379 287.7322  72.0601 15.33197460909249
ASTEX 1                 
1 05560U 71089A   24285.40838016  .00012779  00000+0  33043-2 0  9992
2 05560  92.7176 345.4445 0016746  28.5817 331.6303 14.49812582787762
SL-8 R/B                
1 05730U 71119B   24285.48017524  .00038021  00000+0  21721-2 0  9994
2 05730  73.8916  48.5717 0599771 120.1808 246.0152 14.25050710581875
COSMOS 482 DESCENT CRAFT
1 06073U 72023E   24285.43680803  .00255114  93120-5  33270-3 0  9999
2 06073  51.9845 188.5306 0574232  77.1324 289.3133 14.95201868718850
OAO 3 (COPERNICUS)      
1 06153U 72065A   24285.58126491  .00002453  00000+0  51637-3 0  9990
2 06153  35.0072 344.9502 0007281 275.9649 234.8138 14.59229351771039
ATLAS CENTAUR R/B       
1 06155U 72065B   24285.57704188  .00008384  00000+0  12076-2 0  9998
2 06155  35.0018  73.9681 0035376   8.6251 351.5051 14.75284650765220
SL-8 R/B                
1 08459U 75112B   24285.31750806  .00008256  00000+0  27478-2 0  9993
2 08459  74.0607 244.8113 0014467 105.8166 254.4584 14.37707380557935
SL-3 R/B                
1 10114U 77057B   24285.49409229  .00032864  00000+0  10837-2 0  9996
2 10114  97.5250  71.0421 0009340 333.4318  26.6443 15.31334262589268
SEASAT 1                
1 10967U 78064A   24285.49107631  .00002878  00000+0  85662-3 0  9994
2 10967 108.0032 127.3567 0001878 248.8345 111.2599 14.45293768432194
SL-14 R/B               
1 11267U 79011B   24285.33117323  .00011014  00000+0  11138-2 0  9991
2 11267  82.5251 224.1778 0015673 341.4855  18.5791 14.90819714452113
SL-8 R/B                
1 11574U 79089B   24285.57072143  .00001599  00000+0  49693-3 0  9998
2 11574  74.0692 322.3402 0017046 266.9257  92.9949 14.41774359361994
SL-14 R/B               
1 11672U 80005B   24285.47606208  .00003761  00000+0  38831-3 0  9996
2 11672  82.5126  74.6079 0017544  78.2376 282.0810 14.89817518399891
SL-8 R/B                
1 12139U 81003B   24285.56537904  .00057577  00000+0  19747-2 0  9998
2 12139  82.9397  37.6329 0346826 137.6373 225.2197 14.87980708237625
SL-3 R/B                
1 12465U 81046B   24285.49981228  .00038383  00000+0  13776-2 0  9991
2 12465  81.2392 180.7057 0026105   0.3253 359.7994 15.28182971359535
METEOR PRIRODA          
1 12585U 81065A   24285.56198831  .00071797  00000+0  14581-2 0  9994
2 12585  97.5343 318.6992 0009061  26.7607 333.4108 15.46041968363857
SL-3 R/B                
1 12904U 81103B   24285.51793510  .00019517  00000+0  10597-2 0  9997
2 12904  81.1596  93.5013 0018812 227.7182 132.2452 15.14268924895225
SL-3 R/B                
1 13068U 82013B   24285.49215572  .00021079  00000+0  10972-2 0  9997
2 13068  81.1775  40.8169 0025586 107.3054 253.0977 15.15624116326289
SL-3 R/B                
1 13154U 82039B   24285.51996728  .00017104  00000+0  11760-2 0  9993
2 13154  81.1782  85.7340 0034091 209.5425 150.3873 15.05347004304142
SL-3 R/B                
1 13403U 82079B   24285.53039208  .00023424  00000+0  11806-2 0  9990
2 13403  81.1476  76.8055 0029218  96.8751 263.5803 15.16658486299534
COSMOS 1408             
1 13552U 82092A   24285.53386175  .00750916  26376-3  13815-2 0  9991
2 13552  82.5371 116.9662 0005483 245.1927 114.8782 16.01268080163828
SL-14 R/B               
1 13553U 82092B   24285.43745603  .00008173  00000+0  93447-3 0  9999
2 13553  82.5655 262.1630 0020026 201.7661 273.4856 14.85767455252548
SL-3 R/B                
1 13819U 83010B   24285.43084539  .00084905  00000+0  28363-2 0  9990
2 13819  81.1069 265.1486 0023158  33.0179 327.2497 15.30407714278871
COSMOS 1455             
1 14032U 83037A   24285.56907401  .00073502  00000+0  15279-2 0  9996
2 14032  82.5028 308.0350 0006936 282.8511  77.1962 15.45340569267679
SL-3 R/B                
1 14208U 83075B   24285.49053480  .00030607  00000+0  12259-2 0  9998
2 14208  97.5823 265.7662 0026887 250.3934 109.4400 15.24654771251437
COSMOS 1500             
1 14372U 83099A   24285.53321525  .00106782  00000+0  19539-2 0  9995
2 14372  82.5055 201.0043 0012159  84.2602 276.0035 15.48872559244179
COSMOS 1536             
1 14699U 84013A   24285.39784436  .00052422  00000+0  27988-2 0  9990
2 14699  82.5468 255.6190 0014892 276.3927  83.5609 15.14800325194512
SL-14 R/B               
1 14820U 84027B   24285.58123620  .00002850  00000+0  32997-3 0  9991
2 14820  82.5458   6.8651 0017131 232.5961 127.3697 14.85100851171306
SL-8 R/B                
1 15483U 85006B   24285.59849865  .00001505  00000+0  51285-3 0  9999
2 15483  74.0433 126.7676 0018610 171.4596 248.8441 14.37247593 80158
COSMOS 1626             
1 15494U 85009A   24285.45597520  .00401920  00000+0  28398-2 0  9990
2 15494  82.4577  66.8388 0003016 309.9042  50.1955 15.72860807176962
SL-12 R/B(2)            
1 15772U 85042D   24285.57118028  .00000824  00000+0  39369-3 0  9990
2 15772  71.1062  93.7201 0036305 208.9591 216.9902 14.21724153 41312
SL-14 R/B               
1 15945U 85069B   24285.58511855  .00002511  00000+0  28690-3 0  9997
2 15945  82.5270 148.0884 0020809  94.1540 266.2055 14.85532829 96485
SL-16 R/B               
1 16182U 85097B   24285.36468712  .00001094  00000+0  57340-3 0  9990
2 16182  71.0017 143.2669 0009189 309.7101 223.0165 14.16480558 14393
SL-14 R/B               
1 16496U 86006B   24285.38587453  .00008595  00000+0  98658-3 0  9995
2 16496  82.5281  23.3261 0017481 239.9959 190.6221 14.85649672 72819
COSMOS 1743             
1 16719U 86034A   24285.37617731  .00091509  00000+0  29306-2 0  9996
2 16719  82.5426 241.1665 0007718   4.8027 355.3287 15.31977982100907
SL-14 R/B               
1 16792U 86046B   24285.49360767  .00002884  00000+0  33610-3 0  9999
2 16792  82.4847 205.6359 0024959 124.0298 236.3293 14.84705803 50086
SL-14 R/B               
1 16882U 86055B   24285.44762882  .00008236  00000+0  96591-3 0  9992
2 16882  82.5188 249.7070 0017841 229.0573 252.8149 14.84756230 43038
AJISAI (EGS)            
1 16908U 86061A   24285.61380146 -.00000086  00000+0  83497-4 0  9994
2 16908  50.0083 234.1091 0011399  58.3895 121.7659 12.44508172403982
COSMOS 1812             
1 17295U 87003A   24285.54725745  .00064201  00000+0  17464-2 0  9998
2 17295  82.5080  18.4722 0002291 172.5782 187.5496 15.37266769 64360
SL-14 R/B               
1 17567U 87024B   24285.30881970  .00008190  00000+0  94838-3 0  9996
2 17567  82.5300 215.8141 0019169 158.0522 202.1520 14.85259906 11752
COSMOS 1833             
1 17589U 87027A   24285.56278760  .00000016  00000+0  34368-4 0  9990
2 17589  70.9223 326.6473 0026265 262.4814  97.3323 14.13007431937688
SL-16 R/B               
1 17590U 87027B   24285.39468503  .00001653  00000+0  84528-3 0  9999
2 17590  71.0012 280.1346 0005825 209.8666 150.2126 14.17034305942523
SL-14 R/B               
1 17912U 87038B   24285.44663973  .00008237  00000+0  97071-3 0  9995
2 17912  82.5009  60.8984 0020965  65.2119 295.1274 14.84513264  2917
